Estherville Municipal Airport
Tuesday 9:52 PM
Temperature49° (74°/49°)
Dew Point39°
Feels Like48°
Relative Humidity69
%
Visibility10
mi
Pressure1007.1
mb
Wind Direction
Wind Speed3
mph
Precipitation Today0.00"

Last 30 Observations

Time PresWx Temp DP Feels RH% Vsby Pressure Ceiling Direction Speed 1h Precip
9:52 PM 39° 10
mi
1007.1
mb
NNE
20°
3
mph
0.00"
8:52 PM 55° 40° 57
%
10
mi
1006.8
mb
NNE
20°
6
mph
0.00"
7:52 PM 60° 41° 49
%
10
mi
1005.8
mb
N
10°
8
mph
0.00"
6:52 PM 69° 41° 36
%
10
mi
1005.4
mb
N
350°
13
mph
0.00"
5:52 PM 72° 41° 33
%
10
mi
1005.1
mb
NW
320°
14
mph
0.00"
4:52 PM 73° 45° 37
%
10
mi
1004.8
mb
NW
320°
9
mph
0.00"
3:52 PM 72° 48° 43
%
10
mi
1004.4
mb
NNW
340°
13
mph
(G18)
0.00"
2:52 PM 73° 45° 37
%
10
mi
1004.8
mb
N
10°
13
mph
(G23)
0.00"
1:52 PM 73° 45° 37
%
10
mi
1004.8
mb
N
360°
15
mph
0.00"
12:52 PM 71° 49° 45
%
10
mi
1004.8
mb
NNE
20°
9
mph
0.00"
11:52 AM 67° 52° 59
%
10
mi
1005.1
mb
N
360°
10
mph
0.00"
10:52 AM 63° 53° 70
%
10
mi
1005.4
mb
N
350°
15
mph
0.00"
9:52 AM 60° 52° 75
%
10
mi
1005.1
mb
NNW
330°
17
mph
0.00"
8:52 AM 57° 53° 87
%
9
mi
1004.4
mb
NW
310°
13
mph
0.00"
7:52 AM BR 51° 51° 100
%
6
mi
1004.1
mb
WSW
250°
10
mph
0.00"
7:30 AM BR 51° 51° 100
%
4
mi
1004.1
mb
WSW
240°
11
mph
0.00"
7:16 AM BR 51° 51° 100
%
2
mi
1003.7
mb
SSW
210°
11
mph
0.00"
7:09 AM BR 50° 50° 100
%
mi
1003.7
mb
SW
220°
7
mph
0.00"
6:52 AM BR 51° 51° 100
%
mi
1003.7
mb
200
ft
WSW
240°
9
mph
0.00"
6:50 AM BR 52° 52° 100
%
mi
1003.7
mb
200
ft
WSW
240°
9
mph
0.00"
5:57 AM BR 52° 52° 100
%
¾
mi
1003.7
mb
200
ft
SSW
200°
11
mph
0.00"
5:52 AM BR 52° 52° 100
%
mi
1004.1
mb
200
ft
SSW
210°
11
mph
0.00"
5:36 AM BR 52° 52° 100
%
mi
1004.1
mb
200
ft
SSW
200°
6
mph
0.00"
4:52 AM FG 52° 52° 100
%
½
mi
1004.4
mb
200
ft
SSW
210°
11
mph
0.00"
4:32 AM BR 53° 53° 100
%
¾
mi
1005.1
mb
200
ft
WSW
240°
13
mph
0.00"
4:28 AM BR 53° 53° 100
%
mi
1005.1
mb
200
ft
WSW
250°
13
mph
0.00"
3:52 AM FG 51° 51° 100
%
¼
mi
1003.7
mb
200
ft
SSW
200°
14
mph
0.00"
2:52 AM FG 50° 50° 100
%
¼
mi
1004.4
mb
200
ft
S
190°
15
mph
0.00"
2:04 AM BR 50° 50° 100
%
¾
mi
1005.1
mb
200
ft
S
190°
16
mph
0.00"
1:58 AM BR 50° 50° 100
%
mi
1005.1
mb
200
ft
S
180°
15
mph
0.00"